Flag for Japan Weather past 2 weeks in Kagoshima, Japan

Now
82 °F

Warm.


Feels Like: 90 °F
Forecast: 78 / 88 °F
Wind: 3 mph from Northwest

Location: Kagoshima

Current Time: Jul 29, 2015 at 3:04:47 AM

Latest Report: Jul 29, 2015 at 2:00 AM


Visibility: N/A

Pressure: 29.83 "Hg

Humidity: 86%

Dew point: 77 °F

Location of KagoshimaLocation

Historic Weather in Kagoshima — Graph

°F

Kagoshima temperature yesterday

Maximum temperature yesterday: 91 °F (at 2:00 PM)
Minimum temperature yesterday: 79 °F (at 5:00 AM)
Average temperature yesterday: 84 °F

Past Weeks' High & Low Weather Summary

 TemperatureHumidityPressure
High92 °F (Jul 15, 3:00 PM)98% (Jul 14, 4:00 AM)29.95 "Hg (Jul 14, 4:00 AM)
Low73 °F (Jul 18, 3:00 AM)50% (Jul 15, 2:00 PM)29.32 "Hg (Jul 16, 1:00 PM)
Average82 °F79%29.76 "Hg
* Reported Jul 14 1:00 AM — Jul 29 1:00 AM, Kagoshima, Weather by CustomWeather, © 2015

Note: Actual official high and low records may vary slightly from our data, if they occured in-between our weather recording intervals... More about our weather records

Advertising

Kagoshima weather history for previous 24 hours

 ConditionsComfort  
Time TempWeatherWind HumidityBarometerVisibility
1:00 AM
Wed, Jul 29
82 °FWarm.7 mph85%29.85 "HgN/A
12:00 AM82 °FWarm.5 mph85%29.86 "HgN/A
11:00 PM
Tue, Jul 28
83 °FWarm.6 mph84%29.87 "HgN/A
10:00 PM83 °FWarm.6 mph83%29.86 "HgN/A
9:00 PM83 °FOvercast.7 mph83%29.86 "Hg9 mi
8:00 PM84 °FWarm.6 mph80%29.85 "HgN/A
7:00 PM85 °FWarm.6 mph78%29.83 "HgN/A
6:00 PM85 °FOvercast.8 mph77%29.83 "Hg9 mi
5:00 PM86 °FWarm.9 mph73%29.84 "HgN/A
3:00 PM89 °FPartly sunny.13 mph65%29.85 "Hg16 mi
2:00 PM91 °FHot.12 mph63%29.85 "HgN/A
1:00 PM90 °FHot.10 mph63%29.84 "HgN/A
11:00 AM89 °FHot.12 mph60%29.87 "HgN/A
10:00 AM87 °FWarm.12 mph65%29.88 "HgN/A
9:00 AM86 °FPartly sunny.10 mph70%29.88 "Hg12 mi
8:00 AM83 °FWarm.2 mph83%29.88 "HgN/A
7:00 AM80 °FWarm.1 mph91%29.89 "HgN/A
5:00 AM79 °FWarm.1 mph94%29.87 "HgN/A
4:00 AM79 °FWarm.1 mph94%29.86 "HgN/A
3:00 AM80 °FPassing clouds.3 mph91%29.85 "Hg9 mi
Weather by CustomWeather, © 2015

See weather overviewHow to use our weather pages